Regional Weather Roundup
Issued by NWS

Home | Current Version | Previous Version | Text Only | Print | Product List | Glossary On
Versions: 1 2 3 4 5 6 7 8 9 10 11 12 13 14 15 16 17 18 19 20 21 22 23 24 25 26 27 28 29 30 31 32 33 34 35 36 37 38 39 40 41 42 43 44 45 46 47 48 49 50
000
ASUS43 KIND 232309
RWRIN

WEATHER ROUNDUP FOR INDIANA
NATIONAL WEATHER SERVICE INDIANAPOLIS IN
600 PM EST MON JAN 23 2017

NOTE: "FAIR" INDICATES FEW OR NO CLOUDS BELOW 12,000 FEET WITH NO
SIGNIFICANT WEATHER AND/OR OBSTRUCTIONS TO VISIBILITY.

* - STATION DOES NOT REPORT WEATHER SUCH AS PRECIPITATION OR FOG.

+ - STATION NOT QUALITY CONTROLLED BY THE NATIONAL WEATHER SERVICE.
    USE DATA WITH CAUTION...ESPECIALLY DEWPOINT AND RELATIVE
    HUMIDITY OBSERVATIONS.

INZ001>003-010>013-019-020-240000-
NORTHWEST INDIANA

CITY           SKY/WX    TMP DP  RH WIND       PRES   REMARKS
GARY /AIRPORT/ MOCLDY    39  36  87 N8        29.76R
KNOX *+        CLOUDY    37  27  65 NW10      29.72R
LA PORTE +     CLOUDY    37  37  97 N10       29.73S
MICHIGAN CITY+ CLOUDY    37  37 100 N8        29.75R
MONTICELLO +   CLOUDY    40  36  87 NW15      29.71R
RENSSELAER +   CLOUDY    39  37  93 NW10      29.74S
VALPARAISO     CLOUDY    39  37  92 NW9       29.74R

$$

LMZ046-743>745-240000-
SOUTHERN LAKE MICHIGAN

STATION/POSITION TIME  TEMP    WIND        PRES    WAVE
                       AIR SEA DIR/SP/G            HT
                 (UTC) (F)     (DEG/KT/KT) (MB)    (FT)
BURNS HARBOR     2240   36     320/  5/  8 1008.5R
MICHIGAN CITY    2240   36     320/ 13/ 14   N/A

$$

INZ004-005-014>016-021>024-240000-
NORTH CENTRAL INDIANA

CITY           SKY/WX    TMP DP  RH WIND       PRES   REMARKS
ELKHART        CLOUDY    39  37  93 NW10      29.70R FOG
GOSHEN         CLOUDY    40  38  93 NW9       29.69R FOG
LOGANSPORT +   CLOUDY    37  36  93 NW12G17   29.71R
PERU/GRISSOM   CLOUDY    40  40 100 NW10      29.68R
ROCHESTER +    CLOUDY    41  39  93 NW12      29.70R
SOUTH BEND     CLOUDY    39  37  92 NW14      29.71R
WARSAW +       CLOUDY    37  37 100 NW8       29.69R FOG

$$

INZ006>009-017-018-025>027-240000-
NORTHEAST INDIANA

CITY           SKY/WX    TMP DP  RH WIND       PRES   REMARKS
ANGOLA *+      CLOUDY    41  30  65 CALM      29.67S
AUBURN +       RAIN      43  39  87 N8        29.68R
FORT WAYNE     LGT RAIN  44  41  89 N9        29.67R FOG
HUNTINGTON +   CLOUDY    41  40  96 N8        29.67R
KENDALLVILLE + LGT RAIN  41  41 100 N6        29.67S

$$

INZ028-029-035-036-043>045-051>053-240000-
WEST CENTRAL INDIANA

CITY           SKY/WX    TMP DP  RH WIND       PRES   REMARKS
CRAWFORDSVL +  CLOUDY    37  37 100 NW9       29.72S FOG
GREENCASTLE +  CLOUDY    37  37 100 NW9       29.72S FOG
LAFAYETTE      CLOUDY    39  37  92 NW8       29.73R FOG
TERRE HAUTE    CLOUDY    40  35  83 NW13      29.75R

$$

INZ030>032-037>040-046>048-054>057-064-065-240000-
CENTRAL INDIANA

CITY           SKY/WX    TMP DP  RH WIND       PRES   REMARKS
CP ATTERBURY + CLOUDY    41  39  93 NW13G20   29.69R
COLUMBUS       CLOUDY    41  41 100 NW16      29.69R FOG
FRANKFORT +    CLOUDY    42  40  93 NW9       29.72R FOG
GREENWOOD *+   CLOUDY    42  41  97 NW14      29.69R
INDIANAPOLIS   CLOUDY    41  39  93 NW17      29.70R FOG
-EAGLE CREEK   CLOUDY    41  38  89 NW12      29.69R FOG
KOKOMO +       CLOUDY    40  39  97 NW13      29.69R FOG
MARION +       CLOUDY    41  39  93 N9        29.68R FOG
MT COMFORT *+  CLOUDY    41  39  93 N16       29.67R
SHELBYVILLE    CLOUDY    44  40  85 NW12      29.66R
ZIONSVILLE +   CLOUDY    39  38  98 NW13G18   29.70R FOG

$$

INZ033-034-041-042-049-050-058-059-240000-
EAST CENTRAL INDIANA

CITY           SKY/WX    TMP DP  RH WIND       PRES   REMARKS
MUNCIE         CLOUDY    44  42  93 N13       29.65R FOG

$$

INZ060-061-067>069-081>083-085>088-240000-
SOUTHWEST INDIANA

CITY           SKY/WX    TMP DP  RH WIND       PRES   REMARKS
EVANSVILLE     CLOUDY    42  35  76 NW10G20   29.78R
HUNTINGBURG *+ CLOUDY    41  37  87 NW12      29.75R
WASHINGTON +   CLOUDY    40  37  87 NW17      29.75R

$$

INZ062-063-066-070>080-084-089>092-240000-
SOUTH CENTRAL AND SOUTHEAST INDIANA

CITY           SKY/WX    TMP DP  RH WIND       PRES   REMARKS
BEDFORD +      CLOUDY    43  39  87 NW9       29.69
BLOOMINGTON    CLOUDY    42  37  82 NW8       29.69R HAZE
MADISON *+     CLOUDY    43  41  93 NW8       29.67R
NORTH VERNON + CLOUDY   N/A N/A N/A NW12      29.65R
SEYMOUR +      CLOUDY    45  41  87 NW15      29.68R

$$





USA.gov is the U.S. government's official web portal to all federal, state and local government web resources and services.